When you browse on this site, cookies collect data to enhance your experience and personalize the content and advertising you see.
Visit our Privacy Policy to learn more. By continuing to use the site, you agree to this use of cookies and data.
  • en France
  • Liste des pays
  • À 7 jours
  • Température de l'eau
  • Carte satellitaire
  • Carte météo
  • Widgets météo
  • user-avatar
    Se connecter

    Météo par heure à Abbeville

    Ce jour, 21 Juillet, Dimanche

    Heure Température Précipitation Vent Pression Humidité
    00:00 +14°C° 0 mm 3 m/s 761 mmHg 94%
    01:00 +14°C° 0 mm 3 m/s 761 mmHg 95%
    02:00 +14°C° 0 mm 3 m/s 761 mmHg 95%
    03:00 +14°C° 0 mm 3 m/s 761 mmHg 96%
    04:00 +14°C° 0 mm 3 m/s 762 mmHg 93%
    05:00 +16°C° 0 mm 3 m/s 762 mmHg 91%
    06:00 +17°C° 0 mm 3 m/s 763 mmHg 90%
    07:00 +18°C° 0 mm 3 m/s 763 mmHg 82%
    08:00 +19°C° 0 mm 4 m/s 763 mmHg 75%
    09:00 +21°C° 0 mm 4 m/s 764 mmHg 67%
    10:00 +21°C° 0 mm 4 m/s 764 mmHg 65%
    11:00 +22°C° 0 mm 4 m/s 764 mmHg 62%
    12:00 +22°C° 0 mm 4 m/s 764 mmHg 60%
    13:00 +22°C° 0 mm 4 m/s 764 mmHg 61%
    14:00 +22°C° 0 mm 4 m/s 764 mmHg 62%
    15:00 +22°C° 0 mm 3 m/s 764 mmHg 63%
    16:00 +22°C° 0 mm 3 m/s 764 mmHg 65%
    17:00 +21°C° 0 mm 2 m/s 764 mmHg 67%
    18:00 +20°C° 0 mm 2 m/s 764 mmHg 70%
    19:00 +20°C° 0 mm 1 m/s 764 mmHg 73%
    20:00 +18°C° 0 mm 1 m/s 765 mmHg 77%
    21:00 +15°C° 0 mm 0 m/s 765 mmHg 81%
    22:00 +16°C° 0 mm 1 m/s 765 mmHg 81%
    23:00 +16°C° 0 mm 1 m/s 765 mmHg 80%

    Demain, 22 Juillet, Lundi

    Heure Température Précipitation Vent Pression Humidité
    00:00 +16°C° 0 mm 2 m/s 765 mmHg 80%
    01:00 +16°C° 0 mm 2 m/s 765 mmHg 82%
    02:00 +16°C° 0 mm 2 m/s 765 mmHg 84%
    03:00 +16°C° 0 mm 2 m/s 765 mmHg 86%
    04:00 +17°C° 0 mm 2 m/s 765 mmHg 85%
    05:00 +17°C° 0 mm 2 m/s 765 mmHg 83%
    06:00 +18°C° 0 mm 2 m/s 765 mmHg 81%
    07:00 +20°C° 0 mm 2 m/s 765 mmHg 75%
    08:00 +23°C° 0 mm 2 m/s 765 mmHg 69%
    09:00 +24°C° 0 mm 2 m/s 766 mmHg 63%
    10:00 +25°C° 0 mm 2 m/s 765 mmHg 60%
    11:00 +26°C° 0 mm 2 m/s 765 mmHg 57%
    12:00 +27°C° 0 mm 2 m/s 765 mmHg 55%
    13:00 +28°C° 0 mm 2 m/s 765 mmHg 55%
    14:00 +28°C° 0 mm 2 m/s 765 mmHg 55%
    15:00 +28°C° 0 mm 2 m/s 765 mmHg 55%
    16:00 +27°C° 0 mm 2 m/s 764 mmHg 60%
    17:00 +26°C° 0 mm 3 m/s 764 mmHg 65%
    18:00 +25°C° 0 mm 3 m/s 764 mmHg 71%
    19:00 +23°C° 0 mm 2 m/s 764 mmHg 75%
    20:00 +20°C° 0 mm 2 m/s 764 mmHg 80%
    21:00 +20°C° 0 mm 1 m/s 764 mmHg 84%
    22:00 +19°C° 0 mm 2 m/s 764 mmHg 84%
    23:00 +19°C° 0 mm 2 m/s 764 mmHg 85%

    Après-demain, 23 Juillet, Mardi

    Heure Température Précipitation Vent Pression Humidité
    00:00 +19°C° 0 mm 2 m/s 764 mmHg 85%
    01:00 +18°C° 0 mm 2 m/s 764 mmHg 85%
    02:00 +18°C° 0 mm 2 m/s 764 mmHg 84%
    03:00 +18°C° 0 mm 2 m/s 763 mmHg 84%
    04:00 +19°C° 0 mm 2 m/s 763 mmHg 82%
    05:00 +19°C° 0 mm 3 m/s 763 mmHg 80%
    06:00 +20°C° 0 mm 3 m/s 763 mmHg 78%
    07:00 +22°C° 0 mm 3 m/s 762 mmHg 72%
    08:00 +25°C° 0 mm 3 m/s 762 mmHg 66%
    09:00 +27°C° 0 mm 4 m/s 762 mmHg 61%
    10:00 +29°C° 0 mm 4 m/s 762 mmHg 56%
    11:00 +30°C° 0 mm 4 m/s 761 mmHg 52%
    12:00 +32°C° 0 mm 4 m/s 761 mmHg 48%
    13:00 +32°C° 0 mm 4 m/s 761 mmHg 48%
    14:00 +33°C° 0 mm 4 m/s 760 mmHg 47%
    15:00 +33°C° 0 mm 4 m/s 760 mmHg 46%
    16:00 +32°C° 0 mm 4 m/s 759 mmHg 51%
    17:00 +30°C° 0 mm 4 m/s 759 mmHg 55%
    18:00 +29°C° 0 mm 3 m/s 759 mmHg 60%
    19:00 +28°C° 0 mm 3 m/s 758 mmHg 62%
    20:00 +26°C° 0 mm 4 m/s 758 mmHg 64%
    21:00 +25°C° 0 mm 4 m/s 758 mmHg 66%
    22:00 +23°C° 0 mm 4 m/s 758 mmHg 67%
    23:00 +23°C° 0 mm 4 m/s 758 mmHg 68%

    24 Juillet, Mercredi

    Heure Température Précipitation Vent Pression Humidité
    00:00 +23°C° 0 mm 4 m/s 757 mmHg 69%
    01:00 +22°C° 0.1 mm 4 m/s 757 mmHg 71%
    02:00 +22°C° 0.1 mm 4 m/s 757 mmHg 74%
    03:00 +22°C° 0.1 mm 4 m/s 757 mmHg 76%
    04:00 +22°C° 0.2 mm 4 m/s 757 mmHg 77%
    05:00 +24°C° 0.2 mm 3 m/s 757 mmHg 78%
    06:00 +24°C° 0.2 mm 3 m/s 757 mmHg 79%
    07:00 +26°C° 0 mm 3 m/s 757 mmHg 72%
    08:00 +28°C° 0 mm 3 m/s 757 mmHg 65%
    09:00 +29°C° 0 mm 3 m/s 757 mmHg 59%
    10:00 +30°C° 0 mm 3 m/s 757 mmHg 57%
    11:00 +31°C° 0 mm 3 m/s 757 mmHg 56%
    12:00 +31°C° 0 mm 2 m/s 757 mmHg 55%
    13:00 +31°C° 0 mm 3 m/s 757 mmHg 57%
    14:00 +31°C° 0 mm 3 m/s 757 mmHg 59%
    15:00 +30°C° 0 mm 3 m/s 756 mmHg 61%
    16:00 +29°C° 0 mm 3 m/s 756 mmHg 65%
    17:00 +28°C° 0 mm 3 m/s 756 mmHg 68%
    18:00 +27°C° 0 mm 3 m/s 756 mmHg 72%
    19:00 +26°C° 0 mm 2 m/s 756 mmHg 75%
    20:00 +25°C° 0 mm 2 m/s 756 mmHg 78%
    21:00 +24°C° 0 mm 1 m/s 756 mmHg 80%
    22:00 +25°C° 0 mm 2 m/s 756 mmHg 79%
    23:00 +25°C° 0 mm 3 m/s 756 mmHg 78%

    25 Juillet, Jeudi

    Heure Température Précipitation Vent Pression Humidité
    00:00 +26°C° 0 mm 3 m/s 755 mmHg 77%
    01:00 +26°C° 0 mm 3 m/s 755 mmHg 72%
    02:00 +26°C° 0 mm 4 m/s 755 mmHg 67%
    03:00 +26°C° 0 mm 4 m/s 754 mmHg 62%
    04:00 +26°C° 0 mm 5 m/s 754 mmHg 62%
    05:00 +26°C° 0 mm 5 m/s 754 mmHg 62%
    06:00 +27°C° 0 mm 6 m/s 754 mmHg 63%
    07:00 +29°C° 0 mm 6 m/s 754 mmHg 58%
    08:00 +32°C° 0 mm 6 m/s 754 mmHg 53%
    09:00 +34°C° 0 mm 7 m/s 754 mmHg 49%
    10:00 +35°C° 0 mm 7 m/s 753 mmHg 44%
    11:00 +38°C° 0 mm 7 m/s 753 mmHg 40%
    12:00 +39°C° 0 mm 7 m/s 753 mmHg 35%
    13:00 +39°C° 0 mm 7 m/s 753 mmHg 36%
    14:00 +39°C° 0 mm 6 m/s 752 mmHg 37%
    15:00 +38°C° 0 mm 6 m/s 752 mmHg 38%
    16:00 +33°C° 0.1 mm 6 m/s 752 mmHg 47%
    17:00 +29°C° 0.1 mm 5 m/s 753 mmHg 57%
    18:00 +25°C° 0.1 mm 5 m/s 753 mmHg 66%
    19:00 +23°C° 0.1 mm 4 m/s 753 mmHg 70%
    20:00 +22°C° 0.1 mm 3 m/s 754 mmHg 73%
    21:00 +21°C° 0.1 mm 2 m/s 755 mmHg 77%
    22:00 +20°C° 0 mm 3 m/s 755 mmHg 80%
    23:00 +19°C° 0 mm 3 m/s 756 mmHg 84%

    26 Juillet, Vendredi

    Heure Température Précipitation Vent Pression Humidité
    00:00 +19°C° 0 mm 3 m/s 756 mmHg 87%
    01:00 +19°C° 0 mm 3 m/s 756 mmHg 86%
    02:00 +19°C° 0 mm 4 m/s 757 mmHg 85%
    03:00 +19°C° 0 mm 4 m/s 757 mmHg 83%
    04:00 +18°C° 0.3 mm 4 m/s 758 mmHg 85%
    05:00 +18°C° 0.3 mm 4 m/s 758 mmHg 88%
    06:00 +17°C° 0.3 mm 4 m/s 758 mmHg 90%
    07:00 +17°C° 0.9 mm 4 m/s 758 mmHg 90%
    08:00 +18°C° 0.9 mm 3 m/s 759 mmHg 91%
    09:00 +18°C° 0.9 mm 3 m/s 759 mmHg 91%
    10:00 +19°C° 0.5 mm 3 m/s 759 mmHg 85%
    11:00 +20°C° 0.5 mm 4 m/s 759 mmHg 79%
    12:00 +21°C° 0.5 mm 4 m/s 760 mmHg 72%
    13:00 +22°C° 0.1 mm 4 m/s 759 mmHg 68%
    14:00 +22°C° 0.1 mm 4 m/s 759 mmHg 63%
    15:00 +22°C° 0.1 mm 5 m/s 759 mmHg 59%
    16:00 +22°C° 0.1 mm 4 m/s 760 mmHg 62%
    17:00 +21°C° 0.1 mm 3 m/s 760 mmHg 66%
    18:00 +20°C° 0.1 mm 3 m/s 760 mmHg 69%
    19:00 +19°C° 0 mm 2 m/s 760 mmHg 75%
    20:00 +18°C° 0 mm 1 m/s 760 mmHg 82%
    21:00 +16°C° 0 mm 1 m/s 761 mmHg 88%
    22:00 +16°C° 0 mm 1 m/s 761 mmHg 84%
    23:00 +16°C° 0 mm 1 m/s 761 mmHg 81%
    Voir plus